Flag for Malaysia Weather past 2 weeks in Kuala Lumpur, Malaysia

Now
82 °F

Partly cloudy.


Feels Like: 89 °F
Forecast: 75 / 90 °F
Wind: No wind

Location: Sultan Abdul Aziz Shah-Subang

Current Time: May 4, 2015 at 11:07:29 PM

Latest Report: May 4, 2015 at 10:00 PM


Visibility: 6 mi

Pressure: 29.86 "Hg

Humidity: 79%

Dew point: 75 °F

Location of Kuala LumpurLocation

Historic Weather in Kuala Lumpur — Graph

°F

Kuala Lumpur temperature yesterday

Maximum temperature yesterday: 93 °F (at 3:00 PM)
Minimum temperature yesterday: 79 °F (at 5:00 AM)
Average temperature yesterday: 84 °F

Past Weeks' High & Low Weather Summary

 TemperatureHumidityPressure
High95 °F (Apr 20, 2:00 PM)89% (Apr 25, 5:00 PM)29.92 "Hg (Apr 25, 5:00 PM)
Low75 °F (Apr 25, 5:00 PM)47% (Apr 20, 1:00 PM)29.74 "Hg (Apr 20, 5:00 PM)
Average84 °F76%29.84 "Hg
* Reported Apr 19 10:00 PM — May 4 10:00 PM, Kuala Lumpur, Weather by CustomWeather, © 2015

Note: Actual official high and low records may vary slightly from our data, if they occured in-between our weather recording intervals... More about our weather records

Advertising

Kuala Lumpur weather history for previous 24 hours

 ConditionsComfort  
Time TempWeatherWind HumidityBarometerVisibility
10:00 PM
Mon, May 4
82 °FPartly cloudy.No wind79%29.86 "Hg6 mi
9:00 PM82 °FPartly cloudy.No wind79%29.86 "HgN/A
8:00 PM82 °FBroken clouds.3 mph79%29.83 "HgN/A
7:00 PM82 °FBroken clouds.5 mph79%29.80 "HgN/A
6:00 PM86 °FPartly sunny.1 mph75%29.80 "HgN/A
5:00 PM86 °FPartly sunny.7 mph75%29.80 "HgN/A
4:00 PM88 °FBroken clouds.8 mph70%29.77 "HgN/A
3:00 PM88 °FThunderstorms. Broken clouds.7 mph70%29.80 "HgN/A
2:00 PM90 °FBroken clouds.9 mph71%29.83 "HgN/A
1:00 PM93 °FBroken clouds.7 mph63%29.86 "HgN/A
12:00 PM91 °FBroken clouds.2 mph67%29.89 "HgN/A
11:00 AM90 °FBroken clouds.2 mph71%29.89 "HgN/A
10:00 AM88 °FBroken clouds.2 mph75%29.89 "HgN/A
9:00 AM84 °FBroken clouds.2 mph79%29.86 "HgN/A
8:00 AM79 °FPartly cloudy.1 mph89%29.83 "HgN/A
7:00 AM79 °FPartly cloudy.1 mph89%29.83 "HgN/A
6:00 AM79 °FPartly cloudy.2 mph89%29.80 "HgN/A
5:00 AM79 °FPartly cloudy.1 mph89%29.80 "HgN/A
4:00 AM79 °FPartly cloudy.1 mph84%29.83 "Hg6 mi
3:00 AM79 °FPartly cloudy.1 mph89%29.83 "Hg6 mi
2:00 AM79 °FPartly cloudy.No wind84%29.86 "Hg6 mi
1:00 AM79 °FPartly cloudy.1 mph84%29.86 "Hg6 mi
12:00 AM79 °FPartly cloudy.2 mph84%29.92 "Hg6 mi
11:00 PM
Sun, May 3
79 °FPartly cloudy.1 mph84%29.92 "Hg6 mi
Weather by CustomWeather, © 2015

See weather overviewHow to use our weather pages